Flag for Germany Weather past 2 weeks in Gross-Gerau, Hesse, Germany

Now
84 °F

Sunny.


Feels Like: 83 °F
Forecast: 66 / 83 °F
Wind: 14 mph from Northeast

Location: Frankfurt-M-Flughafen Airport

Current Time: Jul 22, 2014 at 10:15:32 PM

Latest Report: Jul 22, 2014 at 6:50 PM


Visibility: 10 mi

Pressure: 29.98 "Hg

Humidity: 37%

Dew point: 55 °F

Location of Gross-GerauLocation

Historic Weather in Gross-Gerau — Graph

°F

Gross-Gerau temperature yesterday

Maximum temperature yesterday: 77 °F (at 5:20 PM)
Minimum temperature yesterday: 66 °F (at 1:20 AM)
Average temperature yesterday: 70 °F

Past Weeks' High & Low Weather Summary

 TemperatureHumidityPressure
High93 °F (Jul 19, 4:20 PM)100% (Jul 8, 2:20 AM)30.18 "Hg (Jul 8, 2:20 AM)
Low54 °F (Jul 9, 5:50 AM)23% (Jul 18, 6:20 PM)29.71 "Hg (Jul 9, 3:50 PM)
Average70 °F73%29.93 "Hg
* Reported Jul 7 6:20 PM — Jul 22 6:50 PM, Gross-Gerau, Weather by CustomWeather, © 2014

Note: Actual official high and low records may vary slightly from our data, if they occured in-between our weather recording intervals... More about our weather records

Advertising

Gross-Gerau weather history for previous 24 hours

 ConditionsComfort  
Time TempWeatherWind HumidityBarometerVisibility
6:50 PM
Jul 22
84 °FSunny.14 mph37%29.98 "Hg10 mi
6:20 PM84 °FSunny.14 mph35%29.95 "Hg10 mi
5:50 PM84 °FSunny.15 mph35%29.95 "Hg10 mi
5:20 PM84 °FSunny.15 mph37%29.95 "Hg10 mi
4:50 PM82 °FSunny.15 mph42%29.95 "Hg10 mi
4:20 PM82 °FSunny.15 mph42%29.98 "Hg10 mi
3:50 PM82 °FBroken clouds.13 mph45%29.98 "HgN/A
3:20 PM82 °FBroken clouds.15 mph45%29.95 "HgN/A
2:50 PM82 °FBroken clouds.14 mph48%29.98 "HgN/A
2:20 PM81 °FPartly sunny.15 mph48%29.98 "HgN/A
1:50 PM81 °FPartly sunny.15 mph51%29.98 "HgN/A
1:20 PM81 °FPartly sunny.14 mph54%29.95 "HgN/A
12:50 PM79 °FPartly sunny.12 mph61%29.95 "HgN/A
12:20 PM77 °FPartly sunny.12 mph65%29.95 "HgN/A
11:50 AM77 °FSunny.15 mph65%29.95 "Hg10 mi
11:20 AM75 °FPartly sunny.15 mph69%29.95 "HgN/A
10:50 AM75 °FSunny.15 mph69%29.95 "Hg10 mi
10:20 AM73 °FPartly sunny.13 mph78%29.95 "HgN/A
9:50 AM72 °FPartly sunny.14 mph78%29.95 "HgN/A
9:20 AM70 °FBroken clouds.13 mph83%29.95 "HgN/A
8:50 AM70 °FBroken clouds.13 mph83%29.95 "HgN/A
8:20 AM70 °FBroken clouds.9 mph83%29.92 "HgN/A
7:50 AM70 °FBroken clouds.12 mph88%29.92 "HgN/A
7:20 AM70 °FBroken clouds.9 mph88%29.92 "HgN/A
6:50 AM68 °FBroken clouds.7 mph94%29.92 "HgN/A
6:20 AM68 °FPassing clouds.6 mph94%29.92 "HgN/A
5:50 AM68 °FPassing clouds.8 mph94%29.92 "HgN/A
5:20 AM68 °FSprinkles. Partly cloudy.9 mph100%29.89 "HgN/A
4:50 AM70 °FRain showers. Partly cloudy.9 mph94%29.89 "Hg5 mi
4:20 AM70 °FSprinkles. Partly cloudy.9 mph88%29.89 "HgN/A
3:50 AM70 °FPartly cloudy.8 mph88%29.89 "HgN/A
3:20 AM70 °FPartly cloudy.9 mph88%29.89 "HgN/A
2:50 AM70 °FPartly cloudy.7 mph88%29.89 "HgN/A
2:20 AM70 °FSprinkles. Passing clouds.3 mph88%29.89 "HgN/A
1:50 AM70 °FPassing clouds.8 mph83%29.89 "HgN/A
1:20 AM70 °FPassing clouds.6 mph83%29.89 "HgN/A
12:50 AM70 °FPassing clouds.7 mph83%29.92 "HgN/A
12:20 AM70 °FPartly cloudy.6 mph83%29.92 "HgN/A
11:20 PM
Jul 21
70 °FPassing clouds.7 mph83%29.89 "HgN/A
10:50 PM70 °FPassing clouds.9 mph83%29.89 "HgN/A
10:20 PM70 °FBroken clouds.9 mph83%29.89 "HgN/A
Weather by CustomWeather, © 2014

See weather overviewHow to use our weather pages